2 luglio 2022

Tempo Codice Tempo metereologico Temp. Vista Base nuvolosa Vento METAR/SPECI
9:00 am
V
73 °F 6¼ mi+ - Var Var 2 kt METAR LFMP 020700Z AUTO VRB02KT CAVOK 23/09 Q1019 NOSIG
8:30 am
V
72 °F 6¼ mi+ - Var Var 1 kt METAR LFMP 020630Z AUTO VRB01KT CAVOK 22/10 Q1019 NOSIG
8:00 am
V
68 °F 6¼ mi+ - Var Var 1 kt METAR LFMP 020600Z AUTO VRB01KT CAVOK 20/10 Q1019 NOSIG
7:30 am
V
64 °F 6¼ mi+ - 230° 230° 3 kt METAR LFMP 020530Z AUTO 23003KT CAVOK 18/09 Q1019 NOSIG
7:00 am
V
61 °F 6¼ mi+ - Var Var 3 kt METAR LFMP 020500Z AUTO VRB03KT CAVOK 16/09 Q1019 NOSIG
6:30 am
V
59 °F 6¼ mi+ - 250° 250° 4 kt METAR LFMP 020430Z AUTO 25004KT CAVOK 15/09 Q1019 NOSIG
6:00 am
V
59 °F 6¼ mi+ - 220° 220° 4 kt METAR LFMP 020400Z AUTO 22004KT CAVOK 15/09 Q1019 NOSIG
5:30 am
V
61 °F 6¼ mi+ - 240° 240° 4 kt METAR LFMP 020330Z AUTO 24004KT CAVOK 16/09 Q1019 NOSIG
5:00 am
V
61 °F 6¼ mi+ - 220° 220° 5 kt METAR LFMP 020300Z AUTO 22005KT CAVOK 16/10 Q1019 NOSIG
4:30 am
V
61 °F 6¼ mi+ - 230° 230° 7 kt METAR LFMP 020230Z AUTO 23007KT CAVOK 16/10 Q1019 NOSIG
4:00 am
V
61 °F 6¼ mi+ - 240° 240° 7 kt METAR LFMP 020200Z AUTO 24007KT CAVOK 16/10 Q1019
3:30 am
V
63 °F 6¼ mi+ - 230° 230° 6 kt METAR LFMP 020130Z AUTO 23006KT CAVOK 17/11 Q1019
3:00 am
V
63 °F 6¼ mi+ - 220° 220° 5 kt METAR LFMP 020100Z AUTO 22005KT CAVOK 17/11 Q1019
2:30 am
V
64 °F 6¼ mi+ - 250° 250° 6 kt METAR LFMP 020030Z AUTO 25006KT CAVOK 18/10 Q1019
2:00 am
V
64 °F 6¼ mi+ - 150° 150° 4 kt METAR LFMP 020000Z AUTO 15004KT 090V180 CAVOK 18/10 Q1019
1:30 am
V
68 °F 6¼ mi+ - 300° 300° 8 kt METAR LFMP 012330Z AUTO 30008KT CAVOK 20/10 Q1019
1:00 am
V
66 °F 6¼ mi+ - 260° 260° 5 kt METAR LFMP 012300Z AUTO 26005KT CAVOK 19/10 Q1019
12:30 am
V
70 °F 6¼ mi+ - 280° 280° 8 kt METAR LFMP 012230Z AUTO 28008KT CAVOK 21/10 Q1019
12:00 am
V
70 °F 6¼ mi+ - 280° 280° 7 kt METAR LFMP 012200Z AUTO 28007KT CAVOK 21/10 Q1019

1 luglio 2022

Tempo Codice Tempo metereologico Temp. Vista Base nuvolosa Vento METAR/SPECI
11:30 pm
V
70 °F 6¼ mi+ - 270° 270° 4 kt METAR LFMP 012130Z AUTO 27004KT CAVOK 21/10 Q1019 NOSIG
11:00 pm
V
72 °F 6¼ mi+ - 290° 290° 9 kt METAR LFMP 012100Z AUTO 29009KT CAVOK 22/10 Q1019 NOSIG
10:30 pm
V
72 °F 6¼ mi+ - 300° 300° 8 kt METAR LFMP 012030Z AUTO 30008KT CAVOK 22/10 Q1019 NOSIG
10:00 pm
V
73 °F 6¼ mi+ - 300° 300° 9 kt METAR LFMP 012000Z AUTO 30009KT CAVOK 23/10 Q1018 NOSIG
9:30 pm
V
75 °F 6¼ mi+ - 300° 300° 9 kt METAR LFMP 011930Z AUTO 30009KT CAVOK 24/10 Q1018 NOSIG
9:00 pm
V
77 °F 6¼ mi+ - 290° 290° 11 kt METAR LFMP 011900Z AUTO 29011KT CAVOK 25/10 Q1018 NOSIG
8:30 pm
V
77 °F 6¼ mi+ - 300° 300° 12 kt METAR LFMP 011830Z AUTO 30012KT CAVOK 25/10 Q1018 NOSIG
8:00 pm
V
79 °F 6¼ mi+ - 300° 300° 10 kt METAR LFMP 011800Z AUTO 30010KT CAVOK 26/10 Q1018 NOSIG
7:30 pm
V
81 °F 6¼ mi+ - 300° 300° 12 kt METAR LFMP 011730Z AUTO 30012KT CAVOK 27/10 Q1017 NOSIG
7:00 pm
V
81 °F 6¼ mi+ - 330° 330° 9 kt METAR LFMP 011700Z AUTO 33009KT 290V020 CAVOK 27/10 Q1017 NOSIG
6:30 pm
V
81 °F 6¼ mi+ - 310° 310° 11 kt METAR LFMP 011630Z AUTO 31011KT 290V350 9999 FEW019 27/10 Q1017 NOSIG
6:00 pm
V
81 °F 6¼ mi+ - 330° 330° 13 kt METAR LFMP 011600Z AUTO 33013KT 300V010 CAVOK 27/10 Q1017 NOSIG
5:30 pm
V
81 °F 6¼ mi+ - 320° 320° 13 kt METAR LFMP 011530Z AUTO 32013KT 290V350 CAVOK 27/10 Q1017 NOSIG
5:00 pm
V
81 °F 6¼ mi+ - 320° 320° 12 kt METAR LFMP 011500Z AUTO 32012KT 280V010 CAVOK 27/10 Q1018 NOSIG
4:30 pm
V
81 °F 6¼ mi+ - 330° 330° 13 kt METAR LFMP 011430Z AUTO 33013KT 300V030 CAVOK 27/10 Q1018 NOSIG
4:00 pm
V
81 °F 6¼ mi+ - 340° 340° 13 kt METAR LFMP 011400Z AUTO 34013KT 310V020 CAVOK 27/11 Q1018 NOSIG
3:30 pm
V
81 °F 6¼ mi+ - 330° 330° 13 kt METAR LFMP 011330Z AUTO 33013KT 300V360 CAVOK 27/11 Q1018 NOSIG
3:00 pm
V
81 °F 6¼ mi+ - 310° 310° 9 kt METAR LFMP 011300Z AUTO 31009KT 240V360 CAVOK 27/11 Q1018 NOSIG
2:30 pm
V
79 °F 6¼ mi+ - 330° 330° 9 kt METAR LFMP 011230Z AUTO 33009KT 280V040 CAVOK 26/10 Q1018 NOSIG
2:00 pm
V
79 °F 6¼ mi+ - 310° 310° 8 kt METAR LFMP 011200Z AUTO 31008KT 270V360 9999 SCT056 26/10 Q1018 NOSIG
1:30 pm
V
77 °F 6¼ mi+ - 310° 310° 9 kt METAR LFMP 011130Z AUTO 31009KT 270V340 9999 FEW058 25/10 Q1018 NOSIG
1:00 pm
V
77 °F 6¼ mi+ - 320° 320° 9 kt METAR LFMP 011100Z AUTO 32009KT 280V020 9999 FEW060 25/10 Q1019 NOSIG
12:30 pm
V
75 °F 6¼ mi+ - 300° 300° 10 kt METAR LFMP 011030Z AUTO 30010KT 250V010 CAVOK 24/10 Q1019 NOSIG
12:00 pm
V
73 °F 6¼ mi+ - 310° 310° 10 kt METAR LFMP 011000Z AUTO 31010KT 280V360 CAVOK 23/11 Q1019 NOSIG
11:30 am
V
73 °F 6¼ mi+ - 310° 310° 10 kt METAR LFMP 010930Z AUTO 31010KT 270V350 9999 FEW064 23/11 Q1019 NOSIG
11:00 am
V
73 °F 6¼ mi+ - 320° 320° 10 kt METAR LFMP 010900Z AUTO 32010KT 280V350 CAVOK 23/11 Q1019 NOSIG
10:30 am
V
72 °F 6¼ mi+ - 330° 330° 7 kt METAR LFMP 010830Z AUTO 33007KT 280V010 CAVOK 22/11 Q1019 NOSIG
10:00 am
V
70 °F 6¼ mi+ - 330° 330° 9 kt METAR LFMP 010800Z AUTO 33009KT 290V020 CAVOK 21/11 Q1019 NOSIG
9:30 am
V
68 °F 6¼ mi+ - 320° 320° 11 kt METAR LFMP 010730Z AUTO 32011KT 290V020 9999 FEW066 20/11 Q1019 NOSIG
9:00 am
V
66 °F 6¼ mi+ - 320° 320° 10 kt METAR LFMP 010700Z AUTO 32010KT 9999 SCT066 19/10 Q1018 NOSIG
8:30 am
V
66 °F 6¼ mi+ 6.600 ft 310° 310° 9 kt METAR LFMP 010630Z AUTO 31009KT 270V350 9999 BKN066 19/10 Q1018 NOSIG
8:00 am
V
64 °F 6¼ mi+ 6.400 ft 300° 300° 11 kt METAR LFMP 010600Z AUTO 30011KT 9999 BKN064 BKN074 18/10 Q1018 NOSIG
7:30 am
V
64 °F 6¼ mi+ 6.400 ft 300° 300° 8 kt METAR LFMP 010530Z AUTO 30008KT 9999 BKN064 18/10 Q1018 NOSIG
7:00 am
V
64 °F 6¼ mi+ 6.600 ft 290° 290° 9 kt METAR LFMP 010500Z AUTO 29009KT 260V320 9999 OVC066 18/10 Q1018 NOSIG
6:30 am
V
63 °F 6¼ mi+ 6.400 ft 300° 300° 7 kt METAR LFMP 010430Z AUTO 30007KT 270V340 9999 OVC064 17/10 Q1018 NOSIG
6:00 am
V
64 °F 6¼ mi+ 6.200 ft 300° 300° 9 kt METAR LFMP 010400Z AUTO 30009KT 260V330 9999 OVC062 18/10 Q1018 NOSIG
5:30 am
V
64 °F 6¼ mi+ 6.400 ft 280° 280° 7 kt METAR LFMP 010330Z AUTO 28007KT 240V320 9999 OVC064 18/10 Q1018 NOSIG
5:00 am
V
64 °F 6¼ mi+ 6.400 ft 310° 310° 11 kt METAR LFMP 010300Z AUTO 31011KT 270V350 9999 OVC064 18/10 Q1018 NOSIG
4:30 am
V
64 °F 6¼ mi+ 6.400 ft 310° 310° 9 kt METAR LFMP 010230Z AUTO 31009KT 270V340 9999 OVC064 18/11 Q1018 NOSIG
4:00 am
V
64 °F 6¼ mi+ 6.400 ft 290° 290° 8 kt METAR LFMP 010200Z AUTO 29008KT 250V330 9999 OVC064 18/11 Q1018
3:30 am
V
64 °F 6¼ mi+ 6.200 ft 290° 290° 9 kt METAR LFMP 010130Z AUTO 29009KT 250V340 9999 OVC062 18/10 Q1018
3:00 am
V
64 °F 6¼ mi+ 6.200 ft 290° 290° 10 kt METAR LFMP 010100Z AUTO 29010KT 250V320 9999 OVC062 18/11 Q1017
2:30 am
V
66 °F 6¼ mi+ 6.400 ft 300° 300° 12 kt METAR LFMP 010030Z AUTO 30012KT 9999 OVC064 19/11 Q1017
2:00 am
V
66 °F 6¼ mi+ 6.400 ft 290° 290° 14 kt METAR LFMP 010000Z AUTO 29014KT 9999 BKN064 19/11 Q1018
1:30 am
V
66 °F 6¼ mi+ 6.200 ft 300° 300° 14 kt METAR LFMP 302330Z AUTO 30014KT 270V330 9999 OVC062 19/11 Q1017
1:00 am
V
66 °F 6¼ mi+ 13.000 ft 310° 310° 17 kt METAR LFMP 302300Z AUTO 31017KT 9999 SCT064 BKN130 19/11 Q1017
12:30 am
V
66 °F 6¼ mi+ 6.200 ft 300° 300° 9 kt METAR LFMP 302230Z AUTO 30009KT 9999 BKN062 BKN140 19/11 Q1017
12:00 am
V
66 °F 6¼ mi+ 6.000 ft 290° 290° 14 kt METAR LFMP 302200Z AUTO 29014KT 270V330 9999 OVC060 19/11 Q1017

30 giugno 2022

Tempo Codice Tempo metereologico Temp. Vista Base nuvolosa Vento METAR/SPECI
11:30 pm
V
66 °F 6¼ mi+ 6.000 ft 290° 290° 13 kt METAR LFMP 302130Z AUTO 29013KT 9999 OVC060 19/11 Q1017 NOSIG
11:00 pm
V
68 °F 6¼ mi+ 6.000 ft 300° 300° 14 kt METAR LFMP 302100Z AUTO 30014KT 9999 BKN060 OVC130 20/12 Q1016 NOSIG
10:30 pm
V
66 °F 6¼ mi+ 5.800 ft 290° 290° 11 kt METAR LFMP 302030Z AUTO 29011KT 9999 BKN058 BKN120 19/12 Q1016 NOSIG
10:00 pm
V
68 °F 6¼ mi+ 6.000 ft 300° 300° 12 kt METAR LFMP 302000Z AUTO 30012KT 9999 BKN060 BKN130 20/12 Q1015 TEMPO 31015G25KT
9:30 pm
V
68 °F 6¼ mi+ - 300° 300° 15 kt METAR LFMP 301930Z AUTO 30015KT 9999 FEW058 20/12 Q1015 TEMPO 31015G25KT
9:00 pm
V
68 °F 6¼ mi+ 5.800 ft 300° 300° 12 kt METAR LFMP 301900Z AUTO 30012KT 270V330 9999 BKN058 BKN120 20/13 Q1015 TEMPO 31015G25KT
8:30 pm
V
70 °F 6¼ mi+ 5.800 ft 310° 310° 12 kt METAR LFMP 301830Z AUTO 31012KT 280V340 9999 OVC058 21/13 Q1015 TEMPO 31015G25KT
8:00 pm
V
70 °F 6¼ mi+ 5.400 ft 300° 300° 13 kt METAR LFMP 301800Z AUTO 30013KT 9999 BKN054 BKN130 21/12 Q1015 TEMPO 31015G25KT
7:30 pm
V
70 °F 6¼ mi+ 5.200 ft 300° 300° 13 kt METAR LFMP 301730Z AUTO 30013KT 270V340 9999 OVC052 21/13 Q1014 TEMPO 31015G25KT
7:00 pm
V
70 °F 6¼ mi+ 5.200 ft 310° 310° 14 kt METAR LFMP 301700Z AUTO 31014KT 9999 BKN052 21/13 Q1014 TEMPO 31015G25KT
6:30 pm
V
72 °F 6¼ mi+ 4.900 ft 310° 310° 15 kt METAR LFMP 301630Z AUTO 31015KT 9999 BKN049 22/13 Q1014 TEMPO 31015G25KT
6:00 pm
V
72 °F 6¼ mi+ 4.600 ft 300° 300° 18 kt METAR LFMP 301600Z AUTO 30018KT 280V340 9999 OVC046 22/13 Q1014 TEMPO 31015G25KT
5:30 pm
V
72 °F 6¼ mi+ 4.700 ft 300° 300° 16 kt METAR LFMP 301530Z AUTO 30016KT 270V330 9999 BKN047 22/13 Q1014 TEMPO 31015G25KT
5:00 pm
V
72 °F 6¼ mi+ 4.700 ft 300° 300° 16 kt METAR LFMP 301500Z AUTO 30016KT 9999 BKN047 22/13 Q1014 TEMPO 31015G25KT
4:30 pm
V
73 °F 6¼ mi+ 4.700 ft 300° 300° 17 kt METAR LFMP 301430Z AUTO 30017KT 280V350 9999 BKN047 23/13 Q1014 TEMPO 31015G25KT
4:00 pm
V
75 °F 6¼ mi+ 4.700 ft 300° 300° 16 kt METAR LFMP 301400Z AUTO 30016KT 9999 BKN047 24/13 Q1014 TEMPO 31015G25KT
3:30 pm
V
79 °F 6¼ mi+ 4.600 ft 300° 300° 13 kt METAR LFMP 301330Z AUTO 30013KT 280V340 9999 BKN046 BKN100 26/13 Q1014 TEMPO 31015G25KT
3:00 pm
V
81 °F 6¼ mi+ 14.000 ft 290° 290° 9 kt METAR LFMP 301300Z AUTO 29009KT 260V340 9999 SCT044 BKN140 27/15 Q1013 NOSIG
2:30 pm
V
77 °F 6¼ mi+ - 320° 320° 11 kt METAR LFMP 301230Z AUTO 32011KT 280V350 9999 FEW042 SCT150 25/14 Q1013 NOSIG
2:00 pm
V
75 °F 6¼ mi+ - 310° 310° 12 kt METAR LFMP 301200Z AUTO 31012KT 9999 SCT043 SCT140 24/13 Q1013 NOSIG
1:30 pm
V
77 °F 6¼ mi+ - 310° 310° 13 kt METAR LFMP 301130Z AUTO 31013KT 280V350 9999 FEW040 25/14 Q1013 NOSIG
1:00 pm
V
77 °F 6¼ mi+ 3.800 ft 310° 310° 12 kt METAR LFMP 301100Z AUTO 31012KT 9999 BKN038 25/15 Q1013 NOSIG
12:30 pm
V
77 °F 6¼ mi+ 3.800 ft 300° 300° 14 kt METAR LFMP 301030Z AUTO 30014KT 9999 BKN038 BKN130 BKN150 25/15 Q1013 NOSIG
12:00 pm
V
77 °F 6¼ mi+ 14.000 ft 310° 310° 11 kt METAR LFMP 301000Z AUTO 31011KT 9999 SCT039 BKN140 25/15 Q1013 NOSIG
11:30 am
V
77 °F 6¼ mi+ 3.800 ft 310° 310° 10 kt METAR LFMP 300930Z AUTO 31010KT 280V340 9999 BKN038 BKN130 25/15 Q1012 NOSIG
11:00 am
V
77 °F 6¼ mi+ 3.800 ft 300° 300° 12 kt METAR LFMP 300900Z AUTO 30012KT 9999 BKN038 BKN240 25/15 Q1012 NOSIG
10:30 am
V
79 °F 6¼ mi+ - Var Var 3 kt METAR LFMP 300830Z AUTO VRB03KT 9999 FEW034 26/16 Q1012 NOSIG
10:00 am
V
77 °F 6¼ mi+ - 310° 310° 5 kt METAR LFMP 300800Z AUTO 31005KT 270V360 CAVOK 25/16 Q1012 NOSIG
9:30 am
V
73 °F 6¼ mi+ - 310° 310° 6 kt METAR LFMP 300730Z AUTO 31006KT 280V350 CAVOK 23/16 Q1012 NOSIG
Dati più vecchi

Scarica la nostra applicazione

Facile accesso a tutte le previsioni dell'aviazione sul tuo cellulare e tablet.
Con molte caratteristiche non disponibili sul sito web, come il supporto offline e una lista personale di aeroporti.

Noi e le terze parti seguiamo il tuo comportamento in internet sul nostro sito web con i cookie. Se continui, riteniamo che tu sia d'accordo con la nostra politica sui cookie. Per saperne di più